Port Austin, MI

9:42 PM EST on February 22, 2017 (GMT -0500)
Port Hope

Weather History for KP58 - October, 2011

Change the Weather History Date:

Thursday, October 6, 2011

  Actual Average Record
Temperature  
Mean Temperature 58 °F -  
Max Temperature 66 °F 62 °F 87 °F (2007)
Min Temperature 53 °F 46 °F 34 °F (2003)
Degree Days  
Heating Degree Days 6    
Growing Degree Days 8 (Base 50)    
Moisture  
Dew Point 52 °F    
Average Humidity 80    
Maximum Humidity 93    
Minimum Humidity 60    
Precipitation  
Precipitation 0.00 in - - ()
Sea Level Pressure  
Sea Level Pressure 30.30 in    
Wind  
Wind Speed 6 mph (ESE)    
Max Wind Speed 17 mph    
Max Gust Speed -    
Averages and records for this station are not official NWS values.
T = Trace of Precipitation, MM = Missing Value Source: NWS Daily Summary

Daily Weather History Graph

Daily Weather History Graph

Search for Another Location

Airport or City:

Trip Planner

Search our weather history database for the weather conditions in past years. The results will help you decide how hot, cold, wet, or windy it might be!

Date:

Astronomy

Oct. 06, 2011 Rise Set
Actual Time 7:34 AM EDT 7:03 PM EDT
Civil Twilight 7:05 AM EDT 7:32 PM EDT
Nautical Twilight 6:32 AM EDT 8:05 PM EDT
Astronomical Twilight 5:58 AM EDT 8:39 PM EDT
Moon 4:25 PM EDT (10/6) 2:11 AM EDT (10/6)
Length of Visible Light 12h 26m
Length of Day
11h 29m
Waxing Gibbous, 75% of the Moon is Illuminated
Oct 6
Waxing Gibbous
Oct 11
Full
Oct 19
Last Quarter
Oct 26
New
Nov 2
First Quarter

Hourly Weather History & Observations

Time (EDT) Temp. Dew Point Humidity Pressure Visibility Wind Dir Wind Speed Gust Speed Precip Events Conditions
12:51 AM 59.0 °F 54.0 °F 83% 30.28 in - ESE 12.7 mph - N/A   Unknown
1:51 AM 59.0 °F 57.0 °F 93% 30.28 in - SE 4.6 mph - N/A   Unknown
2:51 AM 57.0 °F 54.0 °F 89% 30.29 in - Variable 4.6 mph - N/A   Unknown
3:51 AM 55.9 °F 51.1 °F 84% 30.31 in - SE 5.8 mph - N/A   Unknown
4:51 AM 54.0 °F 48.0 °F 80% 30.32 in - Calm Calm - N/A   Unknown
5:51 AM 55.0 °F 45.0 °F 69% 30.32 in - Variable 3.5 mph - N/A   Unknown
6:51 AM 53.1 °F 45.0 °F 74% 30.33 in - Variable 3.5 mph - N/A   Unknown
7:51 AM 53.1 °F 46.9 °F 80% 30.33 in - South 4.6 mph - N/A   Unknown
8:51 AM 55.9 °F 46.0 °F 69% 30.33 in - Variable 4.6 mph - N/A   Unknown
9:51 AM 59.0 °F 46.0 °F 62% 30.34 in - Calm Calm - N/A   Unknown
10:51 AM 63.0 °F 48.9 °F 60% 30.34 in - Calm Calm - N/A   Unknown
11:51 AM 64.9 °F 51.1 °F 61% 30.33 in - SE 5.8 mph - N/A   Unknown
12:51 PM 62.1 °F 55.9 °F 80% 30.32 in - ESE 11.5 mph - N/A   Unknown
1:51 PM 63.0 °F 57.0 °F 81% 30.30 in - ESE 12.7 mph - N/A   Unknown
2:51 PM 62.1 °F 57.0 °F 84% 30.29 in - ESE 17.3 mph - N/A   Unknown
3:51 PM 63.0 °F 57.9 °F 84% 30.28 in - ESE 12.7 mph - N/A   Unknown
4:51 PM 63.0 °F 57.9 °F 84% 30.28 in - ESE 12.7 mph - N/A   Unknown
5:51 PM 63.0 °F 57.9 °F 84% 30.28 in - ESE 9.2 mph - N/A   Unknown
6:51 PM 61.0 °F 57.9 °F 90% 30.28 in - ESE 6.9 mph - N/A   Unknown
7:51 PM 60.1 °F 55.9 °F 86% 30.29 in - Calm Calm - N/A   Unknown
8:51 PM 55.9 °F 54.0 °F 93% 30.29 in - Calm Calm - N/A   Unknown
9:51 PM 59.0 °F 52.0 °F 78% 30.29 in - Variable 3.5 mph - N/A   Unknown
10:51 PM 55.9 °F 52.0 °F 87% 30.30 in - Calm Calm - N/A   Unknown
11:51 PM 57.9 °F 50.0 °F 75% 30.30 in - Calm Calm - N/A   Unknown